N5CNB-2 Weather Reports


time (UTC)temp
F
wind
direction
speed
knots
gust
knots
rain 1hr
in
rain 24hr
in
rain mn
in
humidity
%
barometer
mb
20260506184557 82 107 0.0 2.6 0.00 0.00 0.00 80 1009.7
20260506183105 81 0 0.9 1.7 0.00 0.00 0.00 81 1009.9
20260506181558 81 105 0.0 5.2 0.00 0.00 0.00 80 1010.1
20260506180053 82 119 0.0 2.6 0.00 0.00 0.00 80 1010.3
20260506174552 81 0 0.9 1.7 0.00 0.00 0.00 80 1010.6
20260506173059 80 93 0.0 3.5 0.00 0.00 0.00 84 1011.0
20260506171554 80 85 0.9 3.5 0.00 0.00 0.00 83 1011.3
20260506170055 80 86 0.0 4.3 0.00 0.00 0.00 84 1011.4
20260506164608 80 0 0.0 0.9 0.00 0.00 0.00 83 1011.5
20260506163101 80 0 0.0 0.0 0.00 0.00 0.00 83 1011.5
20260506161554 79 145 0.0 3.5 0.00 0.00 0.00 84 1011.2
20260506160057 79 98 0.9 5.2 0.00 0.00 0.00 84 1011.0
20260506154600 79 133 0.0 4.3 0.00 0.00 0.00 85 1010.4
20260506153054 79 0 0.0 0.0 0.00 0.00 0.00 85 1010.3
20260506151554 78 0 0.0 0.9 0.00 0.00 0.00 86 1010.4
20260506144552 78 0 0.0 5.2 0.00 0.00 0.00 87 1010.1
20260506143048 77 0 0.0 1.7 0.00 0.00 0.00 88 1009.9
20260506141551 76 104 0.9 2.6 0.00 0.00 0.00 89 1009.5
20260506140051 76 0 0.9 4.3 0.00 0.00 0.00 89 1009.4
20260506134553 76 115 0.9 2.6 0.00 0.00 0.00 90 1009.4
20260506133106 75 116 0.0 3.5 0.00 0.00 0.00 91 1009.5
20260506131606 75 128 0.9 2.6 0.00 0.00 0.00 91 1009.7
20260506130051 0 0.0 0.0 0.00 0.00 0.00 1009.6
20260506124549 0 0.0 0.0 0.00 0.00 0.00 1009.6
20260506123050 0 0.0 0.0 0.00 0.00 0.00 1009.5
20260506121557 0 0.0 0.0 0.00 0.00 0.00 1009.4
20260506120107 0 0.0 0.0 0.00 0.00 0.00 1009.3
20260506114554 0 0.0 0.0 0.00 0.00 0.00 1009.2
20260506113054 0 0.0 0.0 0.00 0.00 0.00 1009.1
20260506111553 0 0.0 0.0 0.00 0.00 0.00 1009.1
20260506110105 0 0.0 0.0 0.00 0.00 0.00 1009.0
20260506104603 0 0.0 0.0 0.00 0.00 0.00 1008.8
20260506103053 0 0.0 0.0 0.00 0.00 0.00 1008.4
20260506101553 0 0.0 0.0 0.00 0.00 0.00 1008.1
20260506094550 0 0.0 0.0 0.00 0.00 0.00 1008.2
20260506093053 0 0.0 0.0 0.00 0.00 0.00 1008.2
20260506091553 0 0.0 0.0 0.00 0.00 0.00 1008.2
20260506090059 0 0.0 0.0 0.00 0.00 0.00 1007.9
20260506084619 0 0.0 0.0 0.00 0.00 0.00 1008.1
20260506083054 0 0.0 0.0 0.00 0.00 0.00 1008.2
20260506081557 0 0.0 0.0 0.00 0.00 0.00 1008.2
20260506073052 0 0.0 0.0 0.00 0.00 0.00 1008.7
20260506071551 0 0.0 0.0 0.00 0.00 0.00 1009.1
20260506061555 0 0.0 0.0 0.00 0.00 0.00 1009.3
20260506044555 0 0.0 0.0 0.00 0.00 0.00 1009.2
20260506043053 76 188 0.9 8.7 0.00 0.00 0.00 87 1009.1
20260506041604 76 175 1.7 5.2 0.00 0.00 0.00 87 1008.9
20260506040054 76 171 3.5 12.2 0.00 0.00 0.00 86 1008.8
20260506034556 77 0 1.7 6.1 0.00 0.00 0.00 86 1009.0
20260506033052 77 174 2.6 8.7 0.00 0.00 0.00 86 1008.9
20260506031555 77 175 1.7 7.0 0.00 0.00 0.00 86 1008.8
20260506030055 77 149 0.9 9.6 0.00 0.00 0.00 85 1008.6
20260506024556 77 164 3.5 12.2 0.00 0.00 0.00 85 1008.4
20260506023106 77 152 1.7 10.4 0.00 0.00 0.00 85 1008.2
20260506021610 77 179 2.6 9.6 0.00 0.00 0.00 85 1007.9
20260506020050 77 180 4.3 9.6 0.00 0.00 0.00 85 1007.8
20260506014556 77 88 2.6 12.2 0.00 0.00 0.00 84 1007.4
20260506013107 78 161 0.9 5.2 0.00 0.00 0.00 84 1007.2
20260506011614 78 173 1.7 8.7 0.00 0.00 0.00 83 1007.0
20260506010059 78 184 2.6 7.8 0.00 0.00 0.00 83 1006.9
20260506004550 78 78 1.7 10.4 0.00 0.00 0.00 82 1006.7
20260506003055 79 150 2.6 10.4 0.00 0.00 0.00 81 1006.7
20260506001555 79 171 1.7 11.3 0.00 0.00 0.00 80 1006.7
20260506000057 80 183 4.3 13.0 0.00 0.00 0.00 80 1006.6
20260505234555 80 194 2.6 12.2 0.00 0.00 0.00 80 1006.3
20260505233050 80 184 2.6 8.7 0.00 0.00 0.00 79 1006.4
20260505231606 81 184 4.3 12.2 0.00 0.00 0.00 79 1006.3
20260505230053 81 171 4.3 13.9 0.00 0.00 0.00 78 1006.1
20260505224602 82 153 4.3 15.6 0.00 0.00 0.00 78 1006.2
20260505223054 82 217 6.1 16.5 0.00 0.00 0.00 77 1006.4
20260505221600 82 172 5.2 13.0 0.00 0.00 0.00 77 1006.4
20260505220057 83 160 3.5 13.0 0.00 0.00 0.00 75 1006.5
20260505214556 83 180 5.2 17.4 0.00 0.00 0.00 74 1006.5
20260505213048 84 225 6.1 14.8 0.00 0.00 0.00 75 1006.8
20260505211549 83 184 6.1 14.8 0.00 0.00 0.00 75 1007.1
20260505210051 84 163 7.8 14.8 0.00 0.00 0.00 74 1007.3
20260505204550 83 104 6.1 17.4 0.00 0.00 0.00 77 1007.5
20260505203107 83 162 6.1 13.9 0.00 0.00 0.00 75 1007.5
20260505201600 83 182 4.3 14.8 0.00 0.00 0.00 75 1007.8
20260505200055 84 171 5.2 13.0 0.00 0.00 0.00 76 1008.0
20260505194552 84 194 3.5 16.5 0.00 0.00 0.00 76 1008.1
20260505193052 83 183 6.1 19.1 0.00 0.00 0.00 77 1008.3
20260505191608 82 146 5.2 12.2 0.00 0.00 0.00 77 1008.6
20260505190054 82 177 2.6 10.4 0.00 0.00 0.00 78 1008.8